Regional Weather Roundup
Issued by NWS Sioux Falls, SD

Home | Current Version | Previous Version | Text Only | Print | Product List | Glossary Off
Versions: 1 2 3 4 5 6 7 8 9 10 11 12 13 14 15 16 17 18 19 20 21 22 23 24 25 26 27 28 29 30 31 32 33 34 35 36 37 38 39 40 41 42 43 44 45 46 47 48 49 50

000
ASUS43 KFSD 261010
RWRFSD

WEATHER ROUNDUP FOR SE SOUTH DAKOTA/SW MINNESOTA/NW IOWA
NATIONAL WEATHER SERVICE SIOUX FALLS SD
500 AM CDT THU MAY 26 2016

NOTE: "FAIR" INDICATES FEW OR NO CLOUDS BELOW 12,000 FEET WITH NO
SIGNIFICANT WEATHER AND OR OBSTRUCTIONS TO VISIBILITY.


SDZ038>040-050-052>070-261100-
SOUTHEAST SOUTH DAKOTA

CITY           SKY/WX    TMP DP  RH WIND       PRES   REMARKS
BROOKINGS      CLEAR     56  52  86 CALM      29.82R
CHAMBERLAIN    CLEAR     55  54  97 CALM      29.85S
HURON          CLEAR     50  48  93 W5        29.82S
MADISON        FAIR      54  54 100 NW8       29.84R
MITCHELL       CLEAR     56  51  84 W3        29.85R
SIOUX FALLS    PTCLDY    57  52  83 NW3       29.84R
WINNER         FAIR      53  49  86 SW3       29.86S
YANKTON        CLEAR     59  52  77 SW3       29.85S
$$

MNZ071-072-080-081-089-090-097-098-261100-
SOUTHWEST MINNESOTA

CITY           SKY/WX    TMP DP  RH WIND       PRES   REMARKS
FAIRMONT       CLOUDY    63  46  55 S21       29.82R
JACKSON        CLOUDY    63  52  67 SW12      29.84R
LUVERNE        MOCLDY    55  52  88 W8        29.85R
MARSHALL       CLOUDY    62  53  72 CALM      29.81R
MONTEVIDEO     CLOUDY    61  52  72 W3        29.80R
PIPESTONE      PTCLDY    59  54  82 NW7       29.83R
REDWOOD FALLS  MOCLDY    61  54  77 SW8       29.78R
TRACY          CLOUDY    61  54  78 SW3       29.82R
WINDOM         CLOUDY    57  55  94 CALM      29.83R
WORTHINGTON    CLOUDY    61  55  81 SW14      29.85R
$$

IAZ001>003-012>014-020>022-031-032-NEZ013-014-SDZ071-261100-
NORTHWEST IOWA

CITY           SKY/WX    TMP DP  RH WIND       PRES   REMARKS
CHEROKEE       MOCLDY    58  58 100 S3        29.85R
DENISON        PTCLDY    57  55  94 CALM      29.83S
ESTHERVILLE    CLOUDY    60  55  83 SW3       29.84R
LE MARS        CLEAR     59  57  94 S6        29.86R
ORANGE CITY    MOCLDY    59  57  94 CALM      29.86R
SHELDON        CLOUDY    59  57  94 SW8       29.84R
SIOUX CITY     FOG       56  54  93 CALM      29.85R VSB 1
SPENCER        CLOUDY    59  55  87 S5        29.84R
STORM LAKE     CLOUDY    59  57  94 S5        29.85R
$$

ABBREVIATIONS USED IN REMARKS
   TC - TEMPERATURE IN CELSIUS
  WCI - WIND CHILL INDEX
   HX - HEAT INDEX
  VSB - VISIBILITY





USA.gov is the U.S. government's official web portal to all federal, state and local government web resources and services.